Zurück zum Katalog

COSMOS 623

AktivMilitärLEO
NORAD 6991·PAYLOAD·🇷🇺 Russia

Gestartet Dec 19, 1973 von Plesetsk Cosmodrome

Loading…

Nächste Überflüge (nächste 24 Stunden)

TLE

AktuellSource: Space-Track

Epoche: Sep 14, 2026, 09:53 UTC

1 06991U 73104G   26257.41237435 -.00000025  00000-0 -48799-4 0  9991
2 06991  74.0265 236.5537 0063567 303.2955 129.6215 12.56959341419887

Verfolge COSMOS 623 in Echtzeit mit AllMySat

Download on the App Store